Location: Vale
(35.4830°N, 81.3830°W)
Time: 16:56:28
(UTC-04:00)

Cosmos 2237 Rocket - Visible Passes

Search period start: 19 April 2014 00:00
Search period end: 29 April 2014 00:00
Orbit: 837 x 849 km, 71.0° (Epoch: 19 April)

Date Brightness Start Highest point End Pass type
(mag) Time Alt. Az. Time Alt. Az. Time Alt. Az.
19 Apr 2.5 20:41:44 10° NNW 20:47:20 70° WSW 20:52:54 10° S visible
20 Apr 2.5 20:27:00 10° NNW 20:32:37 74° WSW 20:38:12 10° SSE visible
26 Apr 5.5 20:46:49 10° W 20:47:29 10° W 20:48:08 10° WSW visible
